GW0795 Weather Reports


time (UTC)temp
F
wind
direction
speed
knots
gust
knots
rain 1hr
in
rain 24hr
in
rain mn
in
humidity
%
barometer
mb
20260903171512 59 200 2.6 7.0 0.00 0.33 0.10 79 1009.5
20260903171008 59 152 0.9 3.5 0.00 0.33 0.10 80 1009.5
20260903170510 58 225 1.7 3.5 0.00 0.33 0.10 80 1009.5
20260903170018 57 101 0.9 4.3 0.00 0.33 0.10 83 1009.5
20260903165512 57 172 1.7 4.3 0.00 0.33 0.10 82 1009.5
20260903165012 56 156 0.0 3.5 0.00 0.33 0.10 84 1009.5
20260903164517 56 196 1.7 6.1 0.00 0.33 0.10 84 1009.5
20260903164011 56 90 0.9 7.8 0.00 0.33 0.10 84 1009.5
20260903163503 56 97 4.3 7.8 0.00 0.33 0.10 84 1009.5
20260903163007 56 115 1.7 5.2 0.00 0.33 0.10 84 1009.5
20260903162508 57 83 0.0 3.5 0.00 0.33 0.10 86 1009.5
20260903162006 56 110 1.7 2.6 0.00 0.33 0.10 84 1009.5
20260903161512 56 140 0.0 6.1 0.00 0.33 0.10 86 1009.5
20260903161013 56 127 0.9 6.1 0.00 0.33 0.10 85 1009.4
20260903160509 56 79 1.7 2.6 0.00 0.33 0.10 84 1009.4
20260903160028 56 101 0.9 3.5 0.00 0.33 0.10 84 1009.4
20260903155515 56 86 0.9 3.5 0.00 0.33 0.10 85 1009.5
20260903155010 56 200 0.9 3.5 0.00 0.33 0.10 85 1009.6
20260903154524 56 134 0.9 5.2 0.00 0.33 0.10 86 1009.5
20260903154012 56 196 1.7 5.2 0.00 0.33 0.10 85 1009.5
20260903153514 56 171 0.9 4.3 0.00 0.33 0.10 85 1009.5
20260903153020 56 179 0.0 1.7 0.00 0.33 0.10 87 1009.5
20260903152514 56 99 0.9 3.5 0.00 0.33 0.10 87 1009.3
20260903152007 55 142 0.0 3.5 0.00 0.33 0.10 87 1009.3
20260903151508 55 158 0.0 1.7 0.00 0.33 0.10 89 1009.3
20260903151008 55 134 0.0 1.7 0.01 0.33 0.10 89 1009.3
20260903150507 54 87 0.9 1.7 0.01 0.33 0.10 90 1009.3
20260903150023 54 110 0.9 1.7 0.01 0.33 0.10 90 1009.3
20260903145512 53 96 0.0 1.7 0.01 0.33 0.10 91 1009.3
20260903145016 53 96 0.0 1.7 0.01 0.33 0.10 91 1009.2
20260903144540 53 42 0.0 1.7 0.01 0.33 0.10 91 1009.1
20260903144013 53 67 0.0 1.7 0.01 0.33 0.10 91 1009.1
20260903143514 53 108 0.0 1.7 0.01 0.33 0.10 91 1009.1
20260903143039 53 108 0.0 1.7 0.02 0.33 0.10 91 1009.0
20260903142514 53 108 0.0 1.7 0.02 0.33 0.10 90 1009.0
20260903142015 53 108 0.0 1.7 0.02 0.33 0.10 91 1009.0
20260903141526 53 115 0.0 3.5 0.02 0.33 0.10 90 1008.9
20260903141020 53 115 0.9 3.5 0.01 0.32 0.09 90 1008.9
20260903140505 53 103 0.0 2.6 0.02 0.32 0.09 91 1008.9
20260903140015 52 103 0.0 2.6 0.02 0.32 0.09 91 1009.1
20260903135510 52 115 0.0 0.0 0.03 0.32 0.09 91 1009.1
20260903135008 52 115 0.0 0.0 0.03 0.32 0.09 91 1008.9
20260903134515 52 115 0.0 0.0 0.04 0.32 0.09 91 1009.0
20260903134011 52 96 0.0 0.0 0.04 0.32 0.09 91 1008.9
20260903133514 52 96 0.0 0.0 0.04 0.32 0.09 91 1008.8
20260903133027 52 96 0.0 0.0 0.03 0.31 0.08 91 1008.8
20260903132513 52 96 0.0 0.0 0.03 0.31 0.08 91 1008.8
20260903132016 52 96 0.0 0.0 0.04 0.31 0.08 91 1008.8
20260903131528 52 96 0.0 1.7 0.05 0.31 0.08 91 1008.7
20260903131014 52 96 0.0 1.7 0.06 0.31 0.08 91 1008.7
20260903130514 52 96 0.9 1.7 0.05 0.30 0.07 90 1008.7
20260903130028 52 88 0.9 1.7 0.07 0.30 0.07 90 1008.7
20260903125516 52 93 0.0 0.9 0.06 0.29 0.06 90 1008.7
20260903125014 52 93 0.0 0.9 0.06 0.29 0.06 90 1008.7
20260903124513 52 103 0.0 1.7 0.05 0.28 0.05 90 1008.6
20260903124010 52 86 0.0 1.7 0.05 0.28 0.05 90 1008.7
20260903123511 52 162 0.0 0.0 0.05 0.28 0.05 89 1008.7
20260903123024 52 162 0.0 0.0 0.05 0.28 0.05 89 1008.7
20260903122504 52 163 0.0 0.0 0.05 0.28 0.05 89 1008.7
20260903122002 52 206 0.0 0.0 0.04 0.27 0.04 88 1008.8
20260903121514 53 206 0.0 0.0 0.03 0.26 0.03 87 1008.6
20260903121005 53 206 0.0 4.3 0.02 0.25 0.02 86 1008.7
20260903120506 53 188 0.0 4.3 0.02 0.25 0.02 84 1008.6
20260903120019 53 198 0.0 2.6 0.00 0.23 0.00 83 1008.7
20260903115504 54 198 0.0 2.6 0.00 0.23 0.00 82 1008.4
20260903115009 54 127 0.0 1.7 0.00 0.23 0.00 82 1008.3
20260903114513 54 80 0.0 1.7 0.00 0.23 0.00 82 1008.2
20260903114009 54 111 0.0 1.7 0.00 0.23 0.00 82 1008.1
20260903113510 54 115 0.0 1.7 0.00 0.23 0.00 82 1008.1
20260903113022 54 108 0.9 3.5 0.00 0.23 0.00 82 1008.0
20260903112514 54 91 0.9 3.5 0.00 0.23 0.00 81 1008.0
20260903112015 54 88 0.9 4.3 0.00 0.23 0.00 82 1008.0
20260903111508 54 127 1.7 5.2 0.00 0.23 0.00 82 1008.0
20260903111003 54 105 1.7 5.2 0.00 0.23 0.00 81 1008.0
20260903110504 54 94 1.7 3.5 0.00 0.23 0.00 81 1007.9
20260903110005 54 73 0.9 2.6 0.00 0.23 0.00 82 1008.0
20260903105504 54 86 0.0 1.7 0.00 0.23 0.00 82 1007.9
20260903105006 54 101 0.0 1.7 0.00 0.23 0.00 83 1007.9
20260903104509 54 84 0.9 2.6 0.00 0.23 0.00 82 1007.9
20260903104006 54 78 0.9 2.6 0.00 0.23 0.00 82 1007.9
20260903103508 54 101 0.9 1.7 0.00 0.23 0.00 83 1007.9
20260903103015 54 188 0.0 1.7 0.00 0.23 0.00 84 1008.0
20260903102510 54 103 0.0 1.7 0.00 0.23 0.00 84 1008.0
20260903102009 54 103 0.9 1.7 0.00 0.23 0.00 83 1008.0
20260903101526 54 100 0.9 2.6 0.00 0.23 0.00 83 1008.0
20260903101012 54 102 0.9 2.6 0.00 0.23 0.00 83 1008.0
20260903100515 54 88 0.0 2.6 0.00 0.23 0.00 83 1008.0
20260903100015 54 86 0.0 1.7 0.00 0.23 0.00 83 1008.0
20260903095501 54 90 0.9 2.6 0.00 0.23 0.00 83 1008.0
20260903095006 54 115 0.9 2.6 0.00 0.23 0.00 83 1007.9
20260903094520 54 96 0.9 2.6 0.00 0.23 0.00 84 1007.9
20260903094006 54 81 0.0 0.0 0.00 0.23 0.00 84 1008.0
20260903093507 54 81 0.0 0.0 0.00 0.23 0.00 85 1008.0
20260903093014 54 81 0.0 0.0 0.00 0.23 0.00 85 1008.0
20260903092509 54 81 0.0 0.0 0.00 0.23 0.00 85 1008.0
20260903092010 54 81 0.0 2.6 0.00 0.23 0.00 83 1008.0
20260903091525 54 81 0.9 2.6 0.00 0.23 0.00 83 1008.0
20260903091012 54 126 0.0 1.7 0.00 0.23 0.00 84 1008.0
20260903090512 54 146 0.0 1.7 0.00 0.23 0.00 83 1008.0
20260903090025 55 149 0.0 0.0 0.00 0.23 0.00 83 1007.9
20260903085515 55 86 0.0 0.0 0.00 0.23 0.00 83 1007.9
20260903085014 54 182 0.0 0.0 0.00 0.23 0.00 84 1007.9
20260903084530 54 177 0.0 0.0 0.00 0.23 0.00 84 1008.0
20260903084004 54 92 0.0 1.7 0.00 0.23 0.00 84 1007.9
20260903083510 54 93 0.0 1.7 0.00 0.23 0.00 85 1007.9
20260903083011 54 75 0.0 1.7 0.00 0.23 0.00 85 1007.9
20260903082509 54 94 0.0 1.7 0.00 0.23 0.00 85 1007.8
20260903082009 54 96 0.0 1.7 0.00 0.23 0.00 86 1007.8
20260903081516 54 89 0.0 1.7 0.00 0.23 0.00 86 1007.7
20260903081009 54 92 0.0 1.7 0.00 0.23 0.00 86 1007.8
20260903080510 54 92 0.0 1.7 0.00 0.23 0.00 85 1007.8
20260903080020 55 92 0.0 1.7 0.00 0.23 0.00 85 1007.8
20260903075512 55 105 0.0 3.5 0.00 0.23 0.00 84 1007.8
20260903075012 55 95 0.9 3.5 0.00 0.23 0.00 84 1007.9
20260903074536 55 88 0.9 2.6 0.00 0.23 0.00 84 1007.8
20260903074016 55 96 0.0 0.0 0.00 0.23 0.00 85 1007.8
20260903073517 54 99 0.0 0.0 0.00 0.23 0.00 86 1007.7
20260903073033 54 91 0.0 0.0 0.00 0.23 0.00 87 1007.7
20260903072505 53 119 0.0 0.0 0.00 0.23 0.00 88 1007.7
20260903072007 53 228 0.0 0.0 0.00 0.23 0.00 89 1007.7
20260903071515 53 228 0.0 0.0 0.00 0.23 0.00 88 1007.6
20260903071010 53 228 0.0 0.0 0.00 0.23 0.00 88 1007.6
20260903070510 53 228 0.0 0.0 0.00 0.23 0.00 88 1007.6
20260903070023 53 228 0.0 0.0 0.00 0.23 0.00 87 1007.6
20260903065512 54 228 0.0 1.7 0.00 0.23 0.23 87 1007.7
20260903065014 53 160 0.0 1.7 0.00 0.23 0.23 87 1007.6
20260903064527 53 170 0.0 1.7 0.00 0.23 0.23 87 1007.6
20260903064014 53 233 0.0 0.0 0.00 0.23 0.23 86 1007.6
20260903063514 54 233 0.0 0.0 0.00 0.23 0.23 85 1007.6
20260903063028 54 177 0.0 2.6 0.00 0.23 0.23 84 1007.6
20260903062516 55 177 0.0 4.3 0.00 0.23 0.23 84 1007.6
20260903062020 55 106 0.0 4.3 0.00 0.23 0.23 84 1007.7
20260903061532 54 165 0.0 1.7 0.00 0.23 0.23 85 1007.6
20260903061008 55 159 0.0 0.9 0.00 0.23 0.23 85 1007.7
20260903060507 55 159 0.0 2.6 0.00 0.23 0.23 84 1007.7
20260903060016 55 348 0.0 3.5 0.00 0.23 0.23 85 1007.7
20260903055512 55 159 0.0 3.5 0.00 0.23 0.23 86 1007.7
20260903055014 55 101 0.0 2.6 0.00 0.23 0.23 87 1007.7
20260903054523 54 100 0.0 2.6 0.00 0.23 0.23 87 1007.8
20260903054016 54 166 0.9 2.6 0.00 0.23 0.23 88 1007.8
20260903053513 54 271 0.0 0.0 0.00 0.23 0.23 89 1007.8
20260903053027 54 269 0.0 0.0 0.00 0.23 0.23 90 1007.8
20260903052514 54 137 0.0 0.0 0.00 0.23 0.23 91 1007.7
20260903052016 54 134 0.0 0.0 0.00 0.23 0.23 91 1007.7
20260903051551 54 134 0.0 0.0 0.00 0.23 0.23 90 1007.7
20260903051021 54 134 0.0 0.0 0.00 0.23 0.23 90 1007.7
20260903050519 54 134 0.0 0.0 0.00 0.23 0.23 90 1007.7
20260903050033 55 134 0.0 0.0 0.00 0.23 0.23 90 1007.7
20260903045508 55 98 0.0 0.0 0.00 0.23 0.23 89 1007.8
20260903045009 55 98 0.0 0.0 0.00 0.23 0.23 89 1007.8
20260903044520 55 98 0.0 0.0 0.00 0.23 0.23 89 1007.7
20260903044010 55 98 0.0 0.0 0.00 0.23 0.23 89 1007.6
20260903043503 55 98 0.0 0.0 0.00 0.23 0.23 90 1007.6
20260903043005 55 98 0.0 0.0 0.00 0.23 0.23 89 1007.6
20260903042506 55 98 0.0 0.0 0.00 0.23 0.23 89 1007.6
20260903042004 55 98 0.0 0.0 0.00 0.23 0.23 88 1007.6
20260903041516 56 319 0.0 0.9 0.00 0.23 0.23 88 1007.4
20260903041004 56 319 0.0 1.7 0.00 0.23 0.23 87 1007.4
20260903040504 56 228 0.0 1.7 0.00 0.23 0.23 87 1007.4
20260903040016 56 224 0.0 1.7 0.00 0.23 0.23 87 1007.3
20260903035509 56 186 0.0 1.7 0.00 0.23 0.23 87 1007.3
20260903035008 56 219 0.0 2.6 0.00 0.23 0.23 86 1007.2
20260903034523 57 211 0.9 6.1 0.00 0.23 0.23 85 1007.1
20260903034013 56 195 1.7 6.1 0.00 0.23 0.23 85 1007.1
20260903033510 56 184 0.0 3.5 0.00 0.23 0.23 86 1007.0
20260903033024 57 229 0.0 3.5 0.00 0.23 0.23 86 1007.0
20260903032512 56 181 0.9 4.3 0.00 0.23 0.23 87 1006.9
20260903032007 56 215 0.0 4.3 0.00 0.23 0.23 87 1006.9
20260903031504 56 159 0.9 3.5 0.00 0.23 0.23 87 1006.8
20260903031004 56 180 0.0 4.3 0.00 0.23 0.23 88 1006.7
20260903030504 56 139 1.7 4.3 0.00 0.23 0.23 88 1006.7
20260903030012 56 191 0.9 3.5 0.00 0.23 0.23 89 1006.6
20260903025507 56 92 0.0 0.0 0.00 0.23 0.23 89 1006.6
20260903025007 56 92 0.0 0.0 0.00 0.23 0.23 89 1006.6
20260903024522 56 92 0.0 0.0 0.00 0.23 0.23 89 1006.5
20260903024008 56 92 0.0 0.0 0.00 0.23 0.23 89 1006.3
20260903023510 56 92 0.0 0.0 0.00 0.23 0.23 88 1006.2
20260903023020 56 92 0.0 0.0 0.00 0.23 0.23 88 1006.3
20260903022511 56 125 0.0 1.7 0.00 0.23 0.23 88 1006.3
20260903022014 56 125 0.0 1.7 0.00 0.23 0.23 88 1006.2
20260903021524 56 198 0.9 1.7 0.00 0.23 0.23 88 1006.1
20260903021016 56 154 0.0 1.7 0.00 0.23 0.23 88 1005.9
20260903020507 56 184 0.0 3.5 0.01 0.23 0.23 88 1005.8
20260903020011 56 242 0.0 4.3 0.02 0.23 0.23 88 1005.8
20260903015504 56 234 1.7 4.3 0.02 0.23 0.23 89 1005.9
20260903015008 56 211 0.0 1.7 0.02 0.23 0.23 89 1005.8
20260903014511 56 200 0.9 3.5 0.02 0.23 0.23 89 1005.9
20260903014012 57 194 0.9 3.5 0.02 0.23 0.23 89 1005.9
20260903013518 57 175 0.0 6.1 0.03 0.23 0.23 89 1005.9
20260903013015 57 229 0.9 6.1 0.03 0.23 0.23 89 1005.7
20260903012516 57 155 1.7 7.0 0.03 0.23 0.23 89 1005.8
20260903012012 58 162 1.7 9.6 0.04 0.23 0.23 89 1005.6
20260903011526 58 221 2.6 9.6 0.06 0.23 0.23 89 1005.6
20260903011014 58 236 1.7 6.1 0.08 0.23 0.23 89 1005.5
20260903010600 58 246 0.9 6.1 0.07 0.22 0.22 89 1005.5
20260903010556 58 115 2.6 8.7 0.06 0.21 0.21 90 1005.2
20260903010551 58 172 2.6 8.7 0.06 0.21 0.21 90 1005.2
20260903010546 59 200 0.9 7.0 0.06 0.21 0.21 91 1005.2
20260903010543 58 173 1.7 7.8 0.05 0.20 0.20 91 1005.0
20260903010539 58 162 0.9 5.2 0.05 0.20 0.20 91 1005.1
20260903002010 58 178 0.9 3.5 0.04 0.19 0.19 92 1005.1
20260903001520 59 196 0.0 1.7 0.02 0.17 0.17 91 1005.2
20260903001012 59 223 0.0 1.7 0.00 0.15 0.15 91 1005.1
20260903000515 59 350 0.9 1.7 0.01 0.15 0.15 91 1004.5
20260903000026 59 242 0.0 1.7 0.01 0.15 0.15 90 1004.6
20260902235516 59 223 0.0 1.7 0.02 0.15 0.15 90 1004.5
20260902235018 59 173 0.0 1.7 0.02 0.15 0.15 91 1004.5
20260902234527 59 176 0.9 1.7 0.03 0.15 0.15 91 1004.6
20260902234016 59 164 0.0 2.6 0.04 0.15 0.15 91 1004.5
20260902233508 59 224 0.9 3.5 0.05 0.15 0.15 91 1004.5
20260902233011 59 96 0.9 3.5 0.05 0.15 0.15 91 1004.4
20260902232512 58 105 0.9 5.2 0.06 0.15 0.15 91 1004.4
20260902232008 58 99 0.9 5.2 0.06 0.15 0.15 91 1004.3
20260902231514 59 98 0.0 1.7 0.06 0.15 0.15 91 1004.4
20260902231013 58 94 0.9 1.7 0.07 0.15 0.15 91 1004.5
20260902230511 58 96 0.9 1.7 0.06 0.14 0.14 91 1004.6
20260902230023 58 142 0.0 0.0 0.07 0.14 0.14 90 1004.7
20260902225512 58 142 0.0 0.0 0.06 0.13 0.13 90 1004.8
20260902225016 58 142 0.0 0.0 0.07 0.13 0.13 90 1004.7
20260902224539 58 142 0.0 0.0 0.06 0.12 0.12 90 1004.8
20260902224014 58 135 0.0 0.0 0.06 0.11 0.11 89 1004.6
20260902223519 58 209 0.0 0.0 0.05 0.10 0.10 89 1004.6
20260902223028 58 229 0.0 0.0 0.06 0.10 0.10 89 1004.7
20260902222517 58 229 0.0 0.0 0.06 0.09 0.09 89 1004.7
20260902222008 58 229 0.0 0.0 0.06 0.09 0.09 89 1004.8
20260902221516 58 209 0.0 0.0 0.06 0.09 0.09 89 1004.8
20260902221008 58 207 0.0 1.7 0.06 0.08 0.08 88 1004.7
20260902220511 58 207 0.0 1.7 0.06 0.08 0.08 89 1004.8
20260902220021 58 59 0.0 1.7 0.05 0.07 0.07 89 1004.8
20260902215513 58 175 0.9 1.7 0.05 0.07 0.07 88 1004.8
20260902215012 58 246 0.0 0.9 0.05 0.06 0.06 88 1004.9
20260902214524 58 352 0.0 0.0 0.05 0.06 0.06 87 1004.8
20260902214014 58 352 0.0 0.0 0.04 0.05 0.05 86 1004.8
20260902213516 58 291 0.0 0.0 0.04 0.05 0.05 85 1004.8
20260902213032 59 292 0.0 0.9 0.03 0.04 0.04 84 1004.8
20260902212506 59 271 0.0 1.7 0.02 0.03 0.03 84 1005.0
20260902212006 59 271 0.0 1.7 0.02 0.03 0.03 84 1004.9
20260902211508 59 188 0.0 1.7 0.02 0.03 0.03 82 1005.0
20260902211009 60 346 0.9 3.5 0.01 0.02 0.02 82 1004.9
20260902210509 60 191 0.9 3.5 0.01 0.02 0.02 81 1004.9
20260902210014 60 207 0.9 6.1 0.01 0.02 0.02 80 1004.9
20260902205510 60 236 1.7 6.1 0.01 0.02 0.02 78 1004.8
20260902205010 60 239 1.7 5.2 0.00 0.01 0.01 79 1004.8
20260902204509 61 323 0.9 5.2 0.00 0.01 0.01 78 1004.9
20260902204006 62 198 1.7 6.1 0.00 0.01 0.01 76 1004.8
20260902203503 62 198 0.9 6.1 0.00 0.01 0.01 75 1004.8
20260902203007 63 188 0.9 7.8 0.00 0.01 0.01 75 1004.7
20260902202503 63 238 2.6 7.8 0.01 0.01 0.01 72 1004.7
20260902202006 63 244 1.7 4.3 0.01 0.01 0.01 72 1004.7
20260902201507 64 170 0.9 4.3 0.01 0.01 0.01 72 1004.8
20260902201006 64 200 0.9 4.3 0.01 0.01 0.01 72 1004.8
20260902200508 64 84 0.9 4.3 0.01 0.01 0.01 72 1004.8
20260902200015 64 198 0.0 4.3 0.01 0.01 0.01 73 1004.9
20260902195510 63 238 1.7 4.3 0.01 0.01 0.01 74 1004.9
20260902195009 63 206 0.9 6.1 0.01 0.01 0.01 74 1004.9
20260902194522 62 211 1.7 6.1 0.01 0.01 0.01 78 1005.0
20260902194012 62 313 0.0 7.8 0.01 0.01 0.01 81 1005.0
20260902193512 61 306 0.9 8.7 0.01 0.01 0.01 80 1005.1
20260902193004 61 217 3.5 8.7 0.01 0.01 0.01 79 1005.3
20260902192503 62 194 0.9 4.3 0.00 0.00 0.00 79 1005.3
20260902192004 62 270 1.7 4.3 0.00 0.00 0.00 75 1005.2
20260902191508 64 190 1.7 4.3 0.00 0.00 0.00 69 1005.2
20260902191005 65 111 0.0 8.7 0.00 0.00 0.00 66 1005.3
20260902190507 67 189 1.7 8.7 0.00 0.00 0.00 63 1005.3
20260902190017 68 203 2.6 8.7 0.00 0.00 0.00 59 1005.1
20260902185510 67 188 0.9 8.7 0.00 0.00 0.00 58 1005.0
20260902185009 68 241 1.7 6.1 0.00 0.00 0.00 58 1005.0
20260902184518 68 219 1.7 6.1 0.00 0.00 0.00 58 1005.1
20260902184011 68 225 1.7 7.0 0.00 0.00 0.00 56 1005.1
20260902183512 68 202 1.7 7.8 0.00 0.00 0.00 61 1005.1
20260902183026 68 168 3.5 7.8 0.00 0.00 0.00 60 1005.1
20260902182516 67 125 0.9 5.2 0.00 0.00 0.00 66 1005.2
20260902182013 66 148 2.6 5.2 0.00 0.00 0.00 65 1005.3
20260902181504 65 253 0.9 2.6 0.00 0.00 0.00 65 1005.3
20260902181012 65 72 0.9 2.6 0.00 0.00 0.00 67 1005.3
20260902180506 65 81 0.9 2.6 0.00 0.00 0.00 67 1005.4
20260902180010 64 84 1.7 2.6 0.00 0.00 0.00 67 1005.4
20260902175508 64 189 0.0 1.7 0.00 0.00 0.00 69 1005.4
20260902175010 64 123 0.0 1.7 0.00 0.00 0.00 69 1005.5
20260902174533 64 96 0.9 1.7 0.00 0.00 0.00 70 1005.6
20260902174011 64 116 0.0 3.5 0.00 0.00 0.00 71 1005.7
20260902173512 64 99 0.9 3.5 0.00 0.00 0.00 71 1005.7
20260902173020 64 210 0.0 2.6 0.00 0.00 0.00 70 1005.8
20260902172514 64 147 0.9 2.6 0.00 0.00 0.00 70 1005.9
20260902172018 64 96 0.9 2.6 0.00 0.00 0.00 70 1005.9